Weather History for Gonzales, LA

Change the Weather History Date:

Wednesday, May 15, 2013

  Actual Average (KBTR) Record (KBTR)
Temperature  
Mean Temperature 70 °F 76 °F  
Max Temperature 82 °F 86 °F 94 °F (1963)
Min Temperature 57 °F 65 °F 50 °F (2014)
Degree Days  
Heating Degree Days 0 0  
Month to date heating degree days 0  
Since 1 July heating degree days 1553  
Cooling Degree Days 4 11  
Month to date cooling degree days 134  
Year to date cooling degree days 365  
Growing Degree Days 20 (Base 50)    
Moisture  
Dew Point 60 °F    
Average Humidity 73    
Maximum Humidity 99    
Minimum Humidity 46    
Precipitation  
Precipitation 0.00 in 0.15 in 2.61 in (2008)
Month to date precipitation 2.30  
Year to date precipitation 21.93  
Snow  
Snow 0.00 in - - ()
Month to date snowfall  
Since 1 July snowfall  
Snow Depth -    
Sea Level Pressure  
Sea Level Pressure 30.12 in    
Wind  
Wind Speed 2 mph (SSE)    
Max Wind Speed 9 mph    
Max Gust Speed -    
Visibility 9 miles    
Events      
T = Trace of Precipitation, MM = Missing Value Source: NWS Daily Summary

Daily Weather History Graph

Daily Weather History Graph

Search for Another Location

Airport:

Trip Planner

Search our weather history database for the weather conditions in past years. The results will help you decide how hot, cold, wet, or windy it might be!

Date:

Astronomy

May. 15, 2013 Rise Set
Actual Time 6:09 AM CDT 7:50 PM CDT
Civil Twilight 5:43 AM CDT 8:17 PM CDT
Nautical Twilight 5:12 AM CDT 8:48 PM CDT
Astronomical Twilight 4:39 AM CDT 9:21 PM CDT
Moon 10:42 AM CDT (5/15) No Moon Set
Length of Visible Light 14h 33m
Length of Day
13h 40m
Waxing Crescent, 27% of the Moon is Illuminated
May 15
Waxing Crescent
May 17
First Quarter
May 24
Full
May 31
Last Quarter
Jun 8
New

Hourly Weather History & Observations

Time (CDT) Temp. Heat Index Dew Point Humidity Pressure Visibility Wind Dir Wind Speed Gust Speed Precip Events Conditions
12:15 AM 62.6 °F - 59.2 °F 89% 30.18 in 10.0 mi Calm Calm - N/A   Clear
12:35 AM 61.7 °F - 59.0 °F 91% 30.18 in 10.0 mi Calm Calm - N/A   Clear
12:55 AM 61.7 °F - 59.2 °F 91% 30.18 in 10.0 mi Calm Calm - N/A   Clear
1:15 AM 60.8 °F - 59.0 °F 94% 30.18 in 7.0 mi Calm Calm - N/A   Clear
1:35 AM 60.8 °F - 59.0 °F 94% 30.18 in 10.0 mi Calm Calm - N/A   Clear
1:55 AM 60.8 °F - 58.8 °F 93% 30.18 in 10.0 mi Calm Calm - N/A   Clear
2:15 AM 59.9 °F - 58.5 °F 95% 30.17 in 10.0 mi Calm Calm - N/A   Clear
2:35 AM 60.1 °F - 59.0 °F 96% 30.18 in 7.0 mi Calm Calm - N/A   Clear
2:55 AM 59.4 °F - 58.8 °F 98% 30.18 in 7.0 mi Calm Calm - N/A   Clear
3:15 AM 59.0 °F - 58.3 °F 97% 30.17 in 7.0 mi Calm Calm - N/A   Clear
3:35 AM 59.2 °F - 58.5 °F 97% 30.17 in 7.0 mi Calm Calm - N/A   Clear
3:55 AM 58.6 °F - 58.1 °F 98% 30.17 in 5.0 mi Calm Calm - N/A   Clear
4:15 AM 58.8 °F - 58.1 °F 97% 30.17 in 7.0 mi Calm Calm - N/A   Clear
4:35 AM 58.1 °F - 57.6 °F 98% 30.17 in 5.0 mi Calm Calm - N/A   Clear
4:55 AM 58.1 °F - 57.4 °F 97% 30.17 in 7.0 mi Calm Calm - N/A   Clear
5:15 AM 58.1 °F - 57.6 °F 98% 30.17 in 5.0 mi Calm Calm - N/A   Clear
5:35 AM 57.6 °F - 57.2 °F 99% 30.17 in 5.0 mi Calm Calm - N/A   Clear
5:55 AM 58.1 °F - 57.6 °F 98% 30.18 in 7.0 mi Calm Calm - N/A   Clear
6:15 AM 58.5 °F - 57.9 °F 98% 30.18 in 5.0 mi Calm Calm - N/A   Clear
6:35 AM 58.5 °F - 57.4 °F 96% 30.18 in 7.0 mi Calm Calm - N/A   Clear
6:55 AM 59.2 °F - 58.1 °F 96% 30.18 in 7.0 mi Calm Calm - N/A   Clear
7:15 AM 59.9 °F - 58.8 °F 96% 30.18 in 5.0 mi Calm Calm - N/A   Clear
7:35 AM 62.1 °F - 60.6 °F 95% 30.18 in 5.0 mi Calm Calm - N/A   Clear
7:55 AM 64.0 °F - 61.9 °F 93% 30.18 in 5.0 mi Calm Calm - N/A   Clear
8:15 AM 65.3 °F - 62.8 °F 92% 30.19 in 7.0 mi Calm Calm - N/A   Clear
8:35 AM 67.1 °F - 64.0 °F 90% 30.19 in 7.0 mi Calm Calm - N/A   Clear
8:55 AM 69.3 °F - 65.1 °F 87% 30.19 in 10.0 mi Calm Calm - N/A   Clear
9:15 AM 71.1 °F - 65.5 °F 82% 30.20 in 10.0 mi Calm Calm - N/A   Clear
9:35 AM 72.3 °F - 65.5 °F 79% 30.19 in 10.0 mi SE 3.5 mph - N/A   Clear
9:55 AM 73.6 °F - 65.5 °F 76% 30.19 in 10.0 mi Calm Calm - N/A   Clear
10:15 AM 73.8 °F - 65.5 °F 75% 30.19 in 10.0 mi Calm Calm - N/A   Clear
10:35 AM 76.1 °F - 62.6 °F 63% 30.19 in 10.0 mi SSE 4.6 mph - N/A   Clear
10:55 AM 76.3 °F - 61.9 °F 61% 30.19 in 10.0 mi SSE 4.6 mph - N/A   Clear
11:15 AM 77.4 °F - 61.9 °F 59% 30.18 in 10.0 mi SSE 4.6 mph - N/A   Clear
11:35 AM 78.8 °F - 60.6 °F 54% 30.18 in 10.0 mi South 5.8 mph - N/A   Clear
11:55 AM 79.0 °F - 61.9 °F 56% 30.18 in 10.0 mi SSE 4.6 mph - N/A   Clear
12:15 PM 80.1 °F 81.1 °F 61.0 °F 52% 30.17 in 10.0 mi SE 9.2 mph - N/A   Clear
12:35 PM 80.6 °F 81.5 °F 61.0 °F 51% 30.17 in 10.0 mi SSE 5.8 mph - N/A   Clear
12:55 PM 80.8 °F 81.5 °F 60.4 °F 50% 30.16 in 10.0 mi SE 8.1 mph - N/A   Clear
1:15 PM 81.1 °F 81.4 °F 58.6 °F 46% 30.15 in 10.0 mi South 8.1 mph - N/A   Clear
1:35 PM 82.2 °F 82.4 °F 59.5 °F 46% 30.14 in 10.0 mi SE 8.1 mph - N/A   Clear
1:55 PM 82.0 °F 82.7 °F 61.0 °F 49% 30.13 in 10.0 mi SSE 6.9 mph - N/A   Clear
2:15 PM 82.0 °F 82.7 °F 61.0 °F 49% 30.12 in 10.0 mi South 6.9 mph - N/A   Clear
2:35 PM 81.5 °F 82.1 °F 60.6 °F 49% 30.11 in 10.0 mi SE 5.8 mph - N/A   Scattered Clouds
2:55 PM 80.8 °F 81.8 °F 61.9 °F 52% 30.10 in 10.0 mi SSE 8.1 mph - N/A   Scattered Clouds
3:15 PM 80.2 °F 81.2 °F 61.0 °F 52% 30.10 in 10.0 mi SSE 5.8 mph - N/A   Scattered Clouds
3:35 PM 80.6 °F 81.1 °F 59.0 °F 48% 30.09 in 10.0 mi South 6.9 mph - N/A   Clear
3:55 PM 79.7 °F - 58.8 °F 49% 30.08 in 10.0 mi SSE 5.8 mph - N/A   Clear
4:15 PM 80.2 °F 80.7 °F 58.3 °F 47% 30.07 in 10.0 mi SSE 5.8 mph - N/A   Clear
4:35 PM 79.9 °F - 58.5 °F 48% 30.06 in 10.0 mi SSE 5.8 mph - N/A   Clear
4:55 PM 79.3 °F - 57.7 °F 47% 30.05 in 10.0 mi SSE 5.8 mph - N/A   Clear
5:15 PM 78.6 °F - 58.3 °F 50% 30.04 in 10.0 mi SSE 6.9 mph - N/A   Clear
5:35 PM 77.9 °F - 57.6 °F 49% 30.04 in 10.0 mi SSE 5.8 mph - N/A   Clear
5:55 PM 77.5 °F - 59.2 °F 53% 30.03 in 10.0 mi SSE 5.8 mph - N/A   Clear
6:15 PM 76.1 °F - 59.5 °F 56% 30.03 in 10.0 mi SSE 6.9 mph - N/A   Clear
6:35 PM 75.9 °F - 59.0 °F 56% 30.03 in 10.0 mi SSE 5.8 mph - N/A   Clear
6:55 PM 75.4 °F - 57.4 °F 53% 30.03 in 10.0 mi SSE 6.9 mph - N/A   Clear
7:15 PM 75.0 °F - 56.7 °F 53% 30.02 in 10.0 mi SSE 6.9 mph - N/A   Clear
7:35 PM 74.8 °F - 57.0 °F 54% 30.02 in 10.0 mi SSE 4.6 mph - N/A   Clear
7:55 PM 73.8 °F - 57.6 °F 57% 30.03 in 10.0 mi SSE 5.8 mph - N/A   Clear
8:15 PM 72.5 °F - 58.6 °F 62% 30.04 in 10.0 mi South 5.8 mph - N/A   Clear
8:35 PM 72.0 °F - 59.2 °F 64% 30.04 in 10.0 mi South 4.6 mph - N/A   Clear
8:55 PM 72.1 °F - 59.2 °F 64% 30.03 in 10.0 mi SSE 4.6 mph - N/A   Clear
9:15 PM 72.0 °F - 59.9 °F 66% 30.03 in 10.0 mi SE 5.8 mph - N/A   Clear
9:35 PM 72.0 °F - 60.1 °F 66% 30.03 in 10.0 mi SSE 5.8 mph - N/A   Clear
9:55 PM 72.0 °F - 61.2 °F 69% 30.02 in 10.0 mi ESE 3.5 mph - N/A   Clear
10:15 PM 70.7 °F - 61.3 °F 72% 30.03 in 10.0 mi SE 3.5 mph - N/A   Clear
10:35 PM 70.3 °F - 61.9 °F 74% 30.03 in 10.0 mi ESE 3.5 mph - N/A   Clear
10:55 PM 70.0 °F - 61.5 °F 74% 30.03 in 10.0 mi SE 5.8 mph - N/A   Clear
11:15 PM 69.8 °F - 61.3 °F 74% 30.03 in 10.0 mi SE 3.5 mph - N/A   Clear
11:35 PM 69.1 °F - 61.7 °F 77% 30.04 in 10.0 mi South 4.6 mph - N/A   Clear
11:55 PM 68.9 °F - 61.9 °F 78% 30.03 in 10.0 mi SSE 3.5 mph - N/A   Clear